ABW639 PANC-KLAX

Flight info

Callsign ABW639
Flight time 4h 37m
Altitude 35000
Route MDO B453 BOXER FOT ENI BURGL BAYST1
Aircraft B77L/H-SDE1E2E3FGHIJ2J3J4J5M1RWXY/LB1D1

Departure

Time 2026-04-24 16:38
Airport Ted Stevens Anchorage International Airport (PANC)

Arrival

Time 2026-04-24 21:16
Airport Los Angeles International Airport (KLAX)
Time Latitude Longitude Altitude Speed Heading
2026-04-24 15:52 61.19502 -150.00508 145 ft 0 kts 166°
2026-04-24 16:14 61.19507 -150.00511 148 ft 1 kts 166°
2026-04-24 16:15 61.19511 -150.00513 148 ft 1 kts 166°
2026-04-24 16:15 61.19532 -150.00524 146 ft 2 kts 166°
2026-04-24 16:16 61.19557 -150.00537 146 ft 2 kts 166°
2026-04-24 16:16 61.19570 -150.00542 146 ft 2 kts 182°
2026-04-24 16:17 61.19596 -150.00510 146 ft 0 kts 256°
2026-04-24 16:29 61.19584 -150.00607 148 ft 9 kts 256°
2026-04-24 16:30 61.19535 -150.00818 153 ft 8 kts 202°
2026-04-24 16:30 61.19477 -150.00819 152 ft 9 kts 173°
2026-04-24 16:30 61.19413 -150.00787 150 ft 10 kts 166°
2026-04-24 16:31 61.19337 -150.00745 148 ft 12 kts 165°
2026-04-24 16:31 61.19251 -150.00697 146 ft 14 kts 165°
2026-04-24 16:31 61.19154 -150.00642 143 ft 15 kts 165°
2026-04-24 16:31 61.19048 -150.00582 140 ft 16 kts 165°
2026-04-24 16:32 61.18935 -150.00520 135 ft 17 kts 165°
2026-04-24 16:32 61.18820 -150.00456 129 ft 17 kts 165°
2026-04-24 16:32 61.18706 -150.00391 133 ft 17 kts 165°
2026-04-24 16:32 61.18591 -150.00327 123 ft 17 kts 165°
2026-04-24 16:33 61.18475 -150.00263 127 ft 17 kts 165°
2026-04-24 16:33 61.18358 -150.00197 123 ft 17 kts 165°
2026-04-24 16:33 61.18242 -150.00132 119 ft 13 kts 165°
2026-04-24 16:33 61.18104 -150.00054 125 ft 29 kts 165°
2026-04-24 16:34 61.17950 -149.99966 119 ft 21 kts 163°
2026-04-24 16:34 61.17810 -149.99890 118 ft 21 kts 165°
2026-04-24 16:34 61.17669 -149.99812 121 ft 21 kts 165°
2026-04-24 16:34 61.17529 -149.99733 121 ft 21 kts 165°
2026-04-24 16:35 61.17389 -149.99654 122 ft 20 kts 164°
2026-04-24 16:35 61.17253 -149.99578 124 ft 20 kts 165°
2026-04-24 16:35 61.17149 -149.99570 116 ft 11 kts 214°
2026-04-24 16:35 61.17132 -149.99626 127 ft 0 kts 252°
2026-04-24 16:36 61.17132 -149.99631 127 ft 3 kts 253°
2026-04-24 16:36 61.17132 -149.99785 133 ft 17 kts 287°
2026-04-24 16:37 61.17237 -149.99921 134 ft 18 kts 345°
2026-04-24 16:37 61.17274 -149.99941 132 ft 0 kts 345°
2026-04-24 16:37 61.17290 -149.99950 130 ft 21 kts 345°
2026-04-24 16:37 61.17775 -150.00216 123 ft 122 kts 345°
2026-04-24 16:38 61.18878 -150.00840 207 ft 195 kts 344°
2026-04-24 16:38 61.20173 -150.01613 1197 ft 199 kts 343°
2026-04-24 16:38 61.21395 -150.03010 1998 ft 211 kts 317°
2026-04-24 16:38 61.22480 -150.05205 2887 ft 224 kts 315°
2026-04-24 16:39 61.23650 -150.07558 3731 ft 249 kts 315°
2026-04-24 16:39 61.24987 -150.10251 4016 ft 277 kts 315°
2026-04-24 16:39 61.26368 -150.13069 4072 ft 277 kts 310°
2026-04-24 16:39 61.27311 -150.16513 4705 ft 277 kts 279°
2026-04-24 16:40 61.27380 -150.20424 5504 ft 266 kts 248°
2026-04-24 16:40 61.26594 -150.23695 6525 ft 244 kts 219°
2026-04-24 16:40 61.25234 -150.25625 7289 ft 238 kts 194°
2026-04-24 16:40 61.23600 -150.26428 7895 ft 245 kts 186°
2026-04-24 16:41 61.21906 -150.26919 8649 ft 252 kts 185°
2026-04-24 16:41 61.20155 -150.27200 9410 ft 254 kts 174°
2026-04-24 16:41 61.18498 -150.25831 10056 ft 266 kts 142°
2026-04-24 16:41 61.17247 -150.22946 10704 ft 276 kts 131°
2026-04-24 16:42 61.16085 -150.19630 11196 ft 291 kts 130°
2026-04-24 16:42 61.14882 -150.16170 11837 ft 300 kts 130°
2026-04-24 16:42 61.13623 -150.12673 12585 ft 305 kts 132°
2026-04-24 16:42 61.12327 -150.09211 13410 ft 308 kts 133°
2026-04-24 16:43 61.10980 -150.05731 14182 ft 312 kts 134°
2026-04-24 16:43 61.09595 -150.02247 14886 ft 315 kts 135°
2026-04-24 16:43 61.08179 -149.98754 15587 ft 319 kts 136°
2026-04-24 16:43 61.06729 -149.95229 16296 ft 324 kts 136°
2026-04-24 16:44 61.05244 -149.91659 16889 ft 332 kts 136°
2026-04-24 16:44 61.03717 -149.88014 17561 ft 337 kts 136°
2026-04-24 16:44 61.02167 -149.84330 18315 ft 341 kts 137°
2026-04-24 16:44 61.00620 -149.80666 18961 ft 344 kts 137°
2026-04-24 16:45 60.99035 -149.76923 19616 ft 347 kts 138°
2026-04-24 16:45 60.97431 -149.73144 20261 ft 350 kts 139°
2026-04-24 16:45 60.95815 -149.69346 20894 ft 353 kts 140°
2026-04-24 16:45 60.94206 -149.65574 21542 ft 356 kts 140°
2026-04-24 16:46 60.92560 -149.61722 22184 ft 360 kts 140°
2026-04-24 16:46 60.90893 -149.57834 22819 ft 363 kts 140°
2026-04-24 16:46 60.89204 -149.53899 23461 ft 368 kts 140°
2026-04-24 16:46 60.87497 -149.49931 24070 ft 372 kts 141°
2026-04-24 16:47 60.85806 -149.45994 24709 ft 370 kts 140°
2026-04-24 16:47 60.84103 -149.42012 25363 ft 369 kts 141°
2026-04-24 16:47 60.82393 -149.38050 25950 ft 372 kts 142°
2026-04-24 16:47 60.80666 -149.34080 26518 ft 375 kts 142°
2026-04-24 16:48 60.78920 -149.30070 27025 ft 381 kts 142°
2026-04-24 16:48 60.77179 -149.26054 27579 ft 381 kts 143°
2026-04-24 16:48 60.75407 -149.21969 28105 ft 385 kts 143°
2026-04-24 16:48 60.73607 -149.17854 28475 ft 390 kts 143°
2026-04-24 16:49 60.71787 -149.13696 29027 ft 393 kts 143°
2026-04-24 16:49 60.69972 -149.09535 29762 ft 391 kts 143°
2026-04-24 16:49 60.68168 -149.05400 30504 ft 387 kts 143°
2026-04-24 16:49 60.66388 -149.01318 31079 ft 385 kts 144°
2026-04-24 16:50 60.62728 -148.93029 31256 ft 404 kts 143°
2026-04-24 16:50 60.60836 -148.88733 31367 ft 410 kts 143°
2026-04-24 16:50 60.58906 -148.84405 31527 ft 416 kts 143°
2026-04-24 16:51 60.56953 -148.80020 31920 ft 417 kts 143°
2026-04-24 16:51 60.55019 -148.75638 32532 ft 413 kts 143°
2026-04-24 16:51 60.53105 -148.71313 33148 ft 410 kts 143°
2026-04-24 16:51 60.51192 -148.67012 33571 ft 410 kts 143°
2026-04-24 16:52 60.49277 -148.62707 33996 ft 410 kts 143°
2026-04-24 16:52 60.47390 -148.58480 34396 ft 410 kts 143°
2026-04-24 16:52 60.45466 -148.54193 34693 ft 411 kts 143°
2026-04-24 16:52 60.43527 -148.49890 34814 ft 416 kts 143°
2026-04-24 16:53 60.39564 -148.41097 34933 ft 428 kts 142°
2026-04-24 16:53 60.35470 -148.32073 35045 ft 441 kts 142°
2026-04-24 16:54 60.31304 -148.22895 35116 ft 451 kts 142°
2026-04-24 16:54 60.27035 -148.13503 35199 ft 455 kts 142°
2026-04-24 16:55 60.22752 -148.04062 35235 ft 456 kts 142°
2026-04-24 16:55 60.18490 -147.94698 35240 ft 456 kts 142°
2026-04-24 16:56 60.14180 -147.85332 35237 ft 455 kts 142°
2026-04-24 16:56 60.09898 -147.76098 35177 ft 453 kts 142°
2026-04-24 16:57 60.05604 -147.66883 35235 ft 451 kts 142°
2026-04-24 16:57 60.01313 -147.57714 35223 ft 450 kts 142°
2026-04-24 16:58 59.97033 -147.48596 35217 ft 449 kts 142°
2026-04-24 16:58 59.92752 -147.39519 35206 ft 448 kts 142°
2026-04-24 16:59 59.88494 -147.30529 35197 ft 448 kts 142°
2026-04-24 17:00 59.82062 -147.17011 35191 ft 447 kts 142°
2026-04-24 17:00 59.75652 -147.03622 35202 ft 447 kts 142°
2026-04-24 17:01 59.69192 -146.90207 35207 ft 448 kts 142°
2026-04-24 17:02 59.62741 -146.76887 35200 ft 449 kts 142°
2026-04-24 17:02 59.58405 -146.67983 35204 ft 450 kts 142°
2026-04-24 17:03 59.51874 -146.54634 35205 ft 451 kts 142°
2026-04-24 17:04 59.47506 -146.45747 35204 ft 452 kts 142°
2026-04-24 17:04 59.40995 -146.32421 35202 ft 455 kts 139°
2026-04-24 17:05 59.36937 -146.22754 35211 ft 459 kts 137°
2026-04-24 17:06 59.30911 -146.08066 35221 ft 461 kts 137°
2026-04-24 17:06 59.24829 -145.93562 35221 ft 461 kts 138°
2026-04-24 17:07 59.20730 -145.83896 35226 ft 461 kts 137°
2026-04-24 17:08 59.12533 -145.64683 35218 ft 462 kts 137°
2026-04-24 17:08 59.08418 -145.55090 35222 ft 461 kts 138°
2026-04-24 17:09 59.00215 -145.36089 35233 ft 459 kts 138°
2026-04-24 17:10 58.91992 -145.17202 35242 ft 457 kts 138°
2026-04-24 17:12 58.76218 -144.81398 35262 ft 459 kts 138°
2026-04-24 18:54 48.38200 -130.32594 35296 ft 493 kts 150°
2026-04-24 18:55 48.29159 -130.25189 35288 ft 492 kts 150°
2026-04-24 18:56 48.23173 -130.20303 35292 ft 492 kts 150°
2026-04-24 18:56 48.17140 -130.15393 35292 ft 493 kts 150°
2026-04-24 18:57 48.11105 -130.10484 35279 ft 494 kts 150°
2026-04-24 18:57 48.05043 -130.05577 35283 ft 496 kts 150°
2026-04-24 18:58 47.98973 -130.00671 35275 ft 496 kts 150°
2026-04-24 18:58 47.92892 -129.95773 35271 ft 495 kts 150°
2026-04-24 18:59 47.86868 -129.90928 35274 ft 494 kts 150°
2026-04-24 18:59 47.80820 -129.86079 35275 ft 493 kts 150°
2026-04-24 19:00 47.74767 -129.81238 35278 ft 493 kts 150°
2026-04-24 19:00 47.68707 -129.76406 35274 ft 495 kts 150°
2026-04-24 19:01 47.62633 -129.71570 35269 ft 496 kts 150°
2026-04-24 19:01 47.56578 -129.66754 35264 ft 496 kts 150°
2026-04-24 19:02 47.51510 -129.62734 35263 ft 496 kts 151°
2026-04-24 19:02 47.44393 -129.57113 35269 ft 495 kts 151°
2026-04-24 19:03 47.38317 -129.52321 35255 ft 494 kts 151°
2026-04-24 19:03 47.32295 -129.47584 35260 ft 493 kts 151°
2026-04-24 19:04 47.26229 -129.42825 35258 ft 493 kts 151°
2026-04-24 19:04 47.20154 -129.38072 35259 ft 493 kts 151°
2026-04-24 19:05 47.14122 -129.33366 35250 ft 494 kts 151°
2026-04-24 19:05 47.08030 -129.28626 35253 ft 495 kts 151°
2026-04-24 19:06 47.01941 -129.23900 35255 ft 495 kts 151°
2026-04-24 19:06 46.95875 -129.19204 35250 ft 495 kts 151°
2026-04-24 19:07 46.89765 -129.14485 35249 ft 495 kts 151°
2026-04-24 19:07 46.84692 -129.10577 35249 ft 495 kts 151°
2026-04-24 19:08 46.77595 -129.05124 35248 ft 495 kts 151°
2026-04-24 19:08 46.71498 -129.00452 35245 ft 495 kts 151°
2026-04-24 19:09 46.65391 -128.95785 35251 ft 495 kts 152°
2026-04-24 19:09 46.59327 -128.91163 35244 ft 495 kts 152°
2026-04-24 19:10 46.53226 -128.86523 35245 ft 495 kts 152°
2026-04-24 19:10 46.47121 -128.81893 35244 ft 495 kts 152°
2026-04-24 19:11 46.41003 -128.77265 35247 ft 495 kts 152°
2026-04-24 19:11 46.34883 -128.72647 35239 ft 495 kts 152°
2026-04-24 19:12 46.28793 -128.68063 35238 ft 495 kts 152°
2026-04-24 19:12 46.22662 -128.63460 35240 ft 496 kts 152°
2026-04-24 19:13 46.17571 -128.59647 35235 ft 496 kts 152°
2026-04-24 19:13 46.10392 -128.54283 35236 ft 496 kts 152°
2026-04-24 19:14 46.04294 -128.49740 35237 ft 496 kts 152°
2026-04-24 19:14 45.98145 -128.45170 35241 ft 496 kts 152°
2026-04-24 19:15 45.91998 -128.40613 35236 ft 496 kts 152°
2026-04-24 19:15 45.85854 -128.36069 35233 ft 497 kts 152°
2026-04-24 19:16 45.76668 -128.29297 35226 ft 497 kts 152°
2026-04-24 19:16 45.70510 -128.24772 35227 ft 497 kts 152°
2026-04-24 19:17 45.64338 -128.20247 35231 ft 498 kts 152°
2026-04-24 19:17 45.58205 -128.15762 35221 ft 498 kts 152°
2026-04-24 19:18 45.52024 -128.11254 35218 ft 498 kts 152°
2026-04-24 19:18 45.45845 -128.06758 35215 ft 498 kts 152°
2026-04-24 19:19 45.39654 -128.02264 35209 ft 498 kts 152°
2026-04-24 19:19 45.33511 -127.97816 35213 ft 498 kts 152°
2026-04-24 19:20 45.27313 -127.93340 35223 ft 499 kts 152°
2026-04-24 19:20 45.21110 -127.88871 35208 ft 499 kts 152°
2026-04-24 19:21 45.14949 -127.84442 35205 ft 499 kts 153°
2026-04-24 19:21 45.08750 -127.79998 35206 ft 499 kts 153°
2026-04-24 19:22 45.02534 -127.75553 35192 ft 500 kts 153°
2026-04-24 19:22 44.96321 -127.71120 35191 ft 500 kts 153°
2026-04-24 19:23 44.90141 -127.66722 35197 ft 500 kts 153°
2026-04-24 19:23 44.83910 -127.62298 35198 ft 500 kts 153°
2026-04-24 19:24 44.77720 -127.57913 35187 ft 500 kts 153°
2026-04-24 19:24 44.71485 -127.53508 35184 ft 500 kts 153°
2026-04-24 19:25 44.65302 -127.49150 35182 ft 500 kts 153°
2026-04-24 19:25 44.59075 -127.44772 35187 ft 500 kts 153°
2026-04-24 19:26 44.52867 -127.40417 35182 ft 500 kts 153°
2026-04-24 19:26 44.46626 -127.36050 35176 ft 500 kts 153°
2026-04-24 19:27 44.40393 -127.31698 35181 ft 500 kts 153°
2026-04-24 19:27 44.34190 -127.27378 35174 ft 500 kts 153°
2026-04-24 19:28 44.27949 -127.23042 35171 ft 500 kts 153°
2026-04-24 19:28 44.21747 -127.18743 35173 ft 499 kts 153°
2026-04-24 19:29 44.12410 -127.12291 35162 ft 499 kts 153°
2026-04-24 19:30 44.06159 -127.07984 35156 ft 499 kts 153°
2026-04-24 19:30 43.99971 -127.03730 35159 ft 499 kts 153°
2026-04-24 19:31 43.93731 -126.99451 35162 ft 499 kts 153°
2026-04-24 19:31 43.87489 -126.95180 35152 ft 499 kts 153°
2026-04-24 19:32 43.81284 -126.90945 35151 ft 500 kts 153°
2026-04-24 19:32 43.75033 -126.86688 35133 ft 500 kts 153°
2026-04-24 19:33 43.68782 -126.82441 35153 ft 499 kts 153°
2026-04-24 19:33 43.62573 -126.78232 35135 ft 499 kts 153°
2026-04-24 19:34 43.56336 -126.74014 35137 ft 499 kts 153°
2026-04-24 19:34 43.50089 -126.69799 35127 ft 499 kts 153°
2026-04-24 19:35 43.43849 -126.65598 35128 ft 499 kts 153°
2026-04-24 19:35 43.37637 -126.61444 35136 ft 499 kts 153°
2026-04-24 19:36 43.31385 -126.57284 35124 ft 499 kts 153°
2026-04-24 19:36 43.25131 -126.53131 35126 ft 499 kts 153°
2026-04-24 19:37 43.19924 -126.49678 35113 ft 499 kts 153°
2026-04-24 19:37 43.13671 -126.45540 35122 ft 498 kts 153°
2026-04-24 19:38 43.06419 -126.40750 35122 ft 497 kts 153°
2026-04-24 19:38 43.01231 -126.37332 35106 ft 496 kts 153°
2026-04-24 19:39 42.95001 -126.33238 35107 ft 497 kts 153°
2026-04-24 19:39 42.88762 -126.29143 35106 ft 497 kts 153°
2026-04-24 19:40 42.82506 -126.25052 35093 ft 497 kts 153°
2026-04-24 19:40 42.76293 -126.20994 35114 ft 497 kts 153°
2026-04-24 19:41 42.70108 -126.16785 35095 ft 496 kts 147°
2026-04-24 19:41 42.64548 -126.11279 35092 ft 495 kts 141°
2026-04-24 19:42 42.59064 -126.05630 35102 ft 494 kts 141°
2026-04-24 19:42 42.53544 -126.00090 35098 ft 491 kts 142°
2026-04-24 19:43 42.48058 -125.94702 35083 ft 488 kts 142°
2026-04-24 19:43 42.42554 -125.89324 35093 ft 486 kts 142°
2026-04-24 19:44 42.37066 -125.83963 35075 ft 486 kts 142°
2026-04-24 19:44 42.31563 -125.78605 35072 ft 487 kts 143°
2026-04-24 19:45 42.26059 -125.73254 35076 ft 488 kts 142°
2026-04-24 19:45 42.20577 -125.67939 35082 ft 488 kts 143°
2026-04-24 19:46 42.15047 -125.62585 35077 ft 488 kts 143°
2026-04-24 19:46 42.09526 -125.57242 35063 ft 487 kts 143°
2026-04-24 19:47 42.04048 -125.51958 35057 ft 486 kts 143°
2026-04-24 19:47 41.98543 -125.46667 35055 ft 486 kts 143°
2026-04-24 19:48 41.93039 -125.41382 35065 ft 485 kts 143°
2026-04-24 19:48 41.84830 -125.33521 35057 ft 484 kts 143°
2026-04-24 19:49 41.73857 -125.23059 35051 ft 483 kts 144°
2026-04-24 19:50 41.62954 -125.12706 35043 ft 478 kts 144°
2026-04-24 19:51 41.54832 -125.05015 35050 ft 476 kts 144°
2026-04-24 19:52 41.46746 -124.97387 35047 ft 476 kts 144°
2026-04-24 19:52 41.41317 -124.92281 35050 ft 478 kts 144°
2026-04-24 19:53 41.35860 -124.87158 35050 ft 480 kts 144°
2026-04-24 19:54 41.27664 -124.79483 35043 ft 483 kts 145°
2026-04-24 19:54 41.22145 -124.74329 35049 ft 486 kts 145°
2026-04-24 19:55 41.17537 -124.70034 35065 ft 487 kts 145°
2026-04-24 19:55 41.11028 -124.63977 35053 ft 489 kts 145°
2026-04-24 19:56 41.05488 -124.58835 35051 ft 489 kts 146°
2026-04-24 19:56 40.99918 -124.53679 35043 ft 488 kts 146°
2026-04-24 19:57 40.94348 -124.48526 35043 ft 488 kts 146°
2026-04-24 19:57 40.88773 -124.43390 35044 ft 488 kts 146°
2026-04-24 19:58 40.83184 -124.38246 35042 ft 489 kts 146°
2026-04-24 19:58 40.77601 -124.33116 35052 ft 489 kts 147°
2026-04-24 19:59 40.72001 -124.27986 35047 ft 490 kts 146°
2026-04-24 19:59 40.66412 -124.22928 35033 ft 490 kts 150°
2026-04-24 20:00 40.60283 -124.19023 35022 ft 489 kts 158°
2026-04-24 20:00 40.54041 -124.15454 35030 ft 489 kts 158°
2026-04-24 20:01 40.47831 -124.11796 35037 ft 489 kts 157°
2026-04-24 20:01 40.41687 -124.08089 35033 ft 489 kts 157°
2026-04-24 20:02 40.36512 -124.04954 35026 ft 489 kts 157°
2026-04-24 20:02 40.29329 -124.00615 35024 ft 489 kts 157°
2026-04-24 20:03 40.23135 -123.96888 35014 ft 489 kts 157°
2026-04-24 20:03 40.16949 -123.93174 35009 ft 489 kts 157°
2026-04-24 20:04 40.10803 -123.89492 35009 ft 488 kts 158°
2026-04-24 20:04 40.04623 -123.85796 34998 ft 488 kts 157°
2026-04-24 20:05 39.98448 -123.82111 34998 ft 488 kts 158°
2026-04-24 20:05 39.92253 -123.78423 34990 ft 488 kts 158°
2026-04-24 20:06 39.86075 -123.74751 34988 ft 488 kts 157°
2026-04-24 20:06 39.79928 -123.71105 34984 ft 489 kts 158°
2026-04-24 20:07 39.74737 -123.68031 34968 ft 489 kts 157°
2026-04-24 20:07 39.67532 -123.63773 34981 ft 489 kts 157°
2026-04-24 20:08 39.61335 -123.60120 34984 ft 489 kts 157°
2026-04-24 20:08 39.55127 -123.56466 34981 ft 489 kts 158°
2026-04-24 20:09 39.48962 -123.52845 34993 ft 489 kts 158°
2026-04-24 20:09 39.42754 -123.49206 34980 ft 489 kts 157°
2026-04-24 20:10 39.36545 -123.45573 34970 ft 489 kts 157°
2026-04-24 20:10 39.30369 -123.41969 34967 ft 489 kts 158°
2026-04-24 20:11 39.24155 -123.38346 34950 ft 489 kts 158°
2026-04-24 20:11 39.17954 -123.34738 34940 ft 489 kts 158°
2026-04-24 20:12 39.11745 -123.31133 34941 ft 489 kts 158°
2026-04-24 20:12 39.05547 -123.27520 34945 ft 489 kts 155°
2026-04-24 20:13 38.99978 -123.22556 34955 ft 492 kts 142°
2026-04-24 20:13 38.94661 -123.16993 34945 ft 492 kts 143°
2026-04-24 20:14 38.89269 -123.11548 34961 ft 492 kts 144°
2026-04-24 20:14 38.83831 -123.06185 34968 ft 493 kts 144°
2026-04-24 20:15 38.78414 -123.00880 34963 ft 492 kts 144°
2026-04-24 20:15 38.72966 -122.95547 34986 ft 493 kts 144°
2026-04-24 20:16 38.67513 -122.90214 34982 ft 493 kts 144°
2026-04-24 20:16 38.62045 -122.84873 35002 ft 494 kts 144°
2026-04-24 20:17 38.56574 -122.79540 34988 ft 495 kts 144°
2026-04-24 20:17 38.48355 -122.71549 34987 ft 495 kts 145°
2026-04-24 20:18 38.42901 -122.66259 34998 ft 495 kts 145°
2026-04-24 20:18 38.37407 -122.60940 35009 ft 496 kts 144°
2026-04-24 20:19 38.31912 -122.55628 34993 ft 496 kts 145°
2026-04-24 20:19 38.26398 -122.50314 34998 ft 495 kts 145°
2026-04-24 20:20 38.20902 -122.45025 34985 ft 495 kts 146°
2026-04-24 20:20 38.15394 -122.39734 35008 ft 496 kts 146°
2026-04-24 20:21 38.09907 -122.34474 35023 ft 497 kts 145°
2026-04-24 20:21 38.04376 -122.29183 35007 ft 498 kts 146°
2026-04-24 20:22 37.98834 -122.23890 34991 ft 498 kts 146°
2026-04-24 20:22 37.93288 -122.18604 35010 ft 498 kts 146°
2026-04-24 20:23 37.87774 -122.13358 34997 ft 498 kts 146°
2026-04-24 20:23 37.82227 -122.08092 35015 ft 498 kts 146°
2026-04-24 20:24 37.77617 -122.03723 35013 ft 499 kts 146°
2026-04-24 20:24 37.72050 -121.98456 34999 ft 500 kts 146°
2026-04-24 20:25 37.65564 -121.92334 35009 ft 500 kts 146°
2026-04-24 20:25 37.60920 -121.87956 35000 ft 501 kts 146°
2026-04-24 20:26 37.55313 -121.82683 34986 ft 502 kts 147°
2026-04-24 20:26 37.49736 -121.77447 35007 ft 503 kts 147°
2026-04-24 20:27 37.44110 -121.72171 35012 ft 504 kts 147°
2026-04-24 20:27 37.38468 -121.66897 34990 ft 505 kts 147°
2026-04-24 20:28 37.32825 -121.61630 35010 ft 506 kts 147°
2026-04-24 20:28 37.27157 -121.56349 34981 ft 506 kts 147°
2026-04-24 20:29 37.21494 -121.51084 34992 ft 506 kts 147°
2026-04-24 20:29 37.15863 -121.45848 35013 ft 506 kts 147°
2026-04-24 20:30 37.10191 -121.40601 34982 ft 507 kts 148°
2026-04-24 20:30 37.04504 -121.35350 35001 ft 507 kts 148°
2026-04-24 20:31 36.98855 -121.30133 35018 ft 507 kts 148°
2026-04-24 20:31 36.93157 -121.24882 34989 ft 509 kts 148°
2026-04-24 20:32 36.87449 -121.19633 35010 ft 509 kts 148°
2026-04-24 20:32 36.81731 -121.14384 35010 ft 509 kts 148°
2026-04-24 20:33 36.76044 -121.09180 34985 ft 509 kts 149°
2026-04-24 20:33 36.70324 -121.03951 34985 ft 510 kts 149°
2026-04-24 20:34 36.64582 -120.98714 35007 ft 510 kts 149°
2026-04-24 20:34 36.58878 -120.93516 34953 ft 511 kts 149°
2026-04-24 20:35 36.53147 -120.88302 34986 ft 509 kts 149°
2026-04-24 20:35 36.47413 -120.83106 34996 ft 510 kts 149°
2026-04-24 20:36 36.41679 -120.77914 34992 ft 510 kts 149°
2026-04-24 20:36 36.35962 -120.72746 34992 ft 512 kts 149°
2026-04-24 20:37 36.30193 -120.67542 34997 ft 513 kts 149°
2026-04-24 20:37 36.24422 -120.62346 34974 ft 513 kts 150°
2026-04-24 20:38 36.18642 -120.57147 34982 ft 513 kts 150°
2026-04-24 20:38 36.12861 -120.51958 34982 ft 513 kts 150°
2026-04-24 20:39 36.07082 -120.46789 34985 ft 512 kts 151°
2026-04-24 20:39 36.01299 -120.41627 34987 ft 513 kts 151°
2026-04-24 20:40 35.95540 -120.36494 34993 ft 514 kts 151°
2026-04-24 20:40 35.89728 -120.31308 34971 ft 514 kts 152°
2026-04-24 20:41 35.83911 -120.26129 34977 ft 516 kts 152°
2026-04-24 20:41 35.78077 -120.20957 34993 ft 516 kts 152°
2026-04-24 20:42 35.72270 -120.15817 34972 ft 517 kts 153°
2026-04-24 20:42 35.66408 -120.10638 34963 ft 517 kts 153°
2026-04-24 20:43 35.60399 -120.05914 34980 ft 511 kts 158°
2026-04-24 20:43 35.54282 -120.01440 34969 ft 510 kts 158°
2026-04-24 20:44 35.48200 -119.96931 34974 ft 511 kts 158°
2026-04-24 20:44 35.42133 -119.92369 34957 ft 511 kts 158°
2026-04-24 20:45 35.36079 -119.87814 34955 ft 510 kts 158°
2026-04-24 20:45 35.30069 -119.83310 34965 ft 509 kts 158°
2026-04-24 20:46 35.24172 -119.78375 34964 ft 518 kts 151°
2026-04-24 20:46 35.21326 -119.75642 34782 ft 521 kts 150°
2026-04-24 20:46 35.18495 -119.72871 34470 ft 519 kts 151°
2026-04-24 20:47 35.15680 -119.70136 34046 ft 516 kts 152°
2026-04-24 20:47 35.12860 -119.67446 33491 ft 512 kts 152°
2026-04-24 20:47 35.10046 -119.64802 32874 ft 507 kts 152°
2026-04-24 20:47 35.07293 -119.62237 32261 ft 496 kts 153°
2026-04-24 20:48 35.04584 -119.59717 31601 ft 482 kts 153°
2026-04-24 20:48 35.01954 -119.57275 31030 ft 470 kts 153°
2026-04-24 20:48 34.99336 -119.54858 30477 ft 472 kts 153°
2026-04-24 20:48 34.96710 -119.52438 29948 ft 475 kts 152°
2026-04-24 20:49 34.94075 -119.50000 29327 ft 476 kts 152°
2026-04-24 20:49 34.91431 -119.47551 28715 ft 476 kts 152°
2026-04-24 20:49 34.88793 -119.45148 28166 ft 472 kts 153°
2026-04-24 20:49 34.86150 -119.42785 27627 ft 468 kts 153°
2026-04-24 20:50 34.83574 -119.40489 27160 ft 463 kts 153°
2026-04-24 20:50 34.80982 -119.38184 26697 ft 459 kts 153°
2026-04-24 20:50 34.78409 -119.35891 26258 ft 456 kts 153°
2026-04-24 20:50 34.75854 -119.33612 25811 ft 453 kts 153°
2026-04-24 20:51 34.73315 -119.31357 25385 ft 449 kts 153°
2026-04-24 20:51 34.70778 -119.29141 24959 ft 446 kts 153°
2026-04-24 20:51 34.68259 -119.26949 24529 ft 444 kts 153°
2026-04-24 20:51 34.65787 -119.24793 24131 ft 441 kts 153°
2026-04-24 20:52 34.63287 -119.22620 23716 ft 439 kts 153°
2026-04-24 20:52 34.60794 -119.20475 23195 ft 438 kts 154°
2026-04-24 20:52 34.58303 -119.18336 22685 ft 437 kts 153°
2026-04-24 20:52 34.55832 -119.16202 22153 ft 436 kts 152°
2026-04-24 20:53 34.53378 -119.14038 21651 ft 435 kts 152°
2026-04-24 20:53 34.50938 -119.11868 21167 ft 434 kts 151°
2026-04-24 20:53 34.48507 -119.09706 20629 ft 432 kts 151°
2026-04-24 20:53 34.46083 -119.07558 20193 ft 429 kts 151°
2026-04-24 20:54 34.43729 -119.05472 19999 ft 419 kts 151°
2026-04-24 20:54 34.41392 -119.03441 19810 ft 410 kts 152°
2026-04-24 20:54 34.39042 -119.01415 19317 ft 409 kts 152°
2026-04-24 20:54 34.36753 -118.99444 18855 ft 407 kts 151°
2026-04-24 20:55 34.34490 -118.97484 18303 ft 393 kts 151°
2026-04-24 20:55 34.32365 -118.95593 17643 ft 382 kts 149°
2026-04-24 20:55 34.30270 -118.93677 16935 ft 372 kts 149°
2026-04-24 20:55 34.28231 -118.91812 16314 ft 363 kts 149°
2026-04-24 20:56 34.26226 -118.89992 16104 ft 360 kts 149°
2026-04-24 20:56 34.24200 -118.88154 16005 ft 367 kts 148°
2026-04-24 20:56 34.22147 -118.86270 15683 ft 372 kts 148°
2026-04-24 20:56 34.20110 -118.84394 15122 ft 369 kts 148°
2026-04-24 20:57 34.18097 -118.82537 14504 ft 357 kts 148°
2026-04-24 20:57 34.16132 -118.80713 13876 ft 351 kts 145°
2026-04-24 20:57 34.14314 -118.78814 13223 ft 349 kts 142°
2026-04-24 20:57 34.12524 -118.76828 12546 ft 347 kts 141°
2026-04-24 20:58 34.10776 -118.74881 11876 ft 335 kts 141°
2026-04-24 20:58 34.09084 -118.73015 11221 ft 322 kts 141°
2026-04-24 20:58 34.07455 -118.71233 10575 ft 310 kts 140°
2026-04-24 20:58 34.05900 -118.69543 10001 ft 300 kts 141°
2026-04-24 20:59 34.04359 -118.67875 9417 ft 293 kts 140°
2026-04-24 20:59 34.03093 -118.65906 9188 ft 303 kts 115°
2026-04-24 20:59 34.02614 -118.63407 8920 ft 307 kts 96°
2026-04-24 20:59 34.02426 -118.60861 8568 ft 301 kts 97°
2026-04-24 21:00 34.02206 -118.58363 8207 ft 295 kts 97°
2026-04-24 21:00 34.01986 -118.55996 8002 ft 277 kts 98°
2026-04-24 21:00 34.01773 -118.53708 8006 ft 277 kts 97°
2026-04-24 21:00 34.01553 -118.51368 7822 ft 281 kts 97°
2026-04-24 21:01 34.01337 -118.49074 7476 ft 269 kts 97°
2026-04-24 21:01 34.01132 -118.46904 7107 ft 253 kts 98°
2026-04-24 21:01 34.00667 -118.44959 7028 ft 237 kts 122°
2026-04-24 21:01 33.99765 -118.43262 7026 ft 243 kts 124°
2026-04-24 21:02 33.98858 -118.41546 7017 ft 245 kts 125°
2026-04-24 21:02 33.97949 -118.39812 7001 ft 247 kts 125°
2026-04-24 21:02 33.97032 -118.38062 6999 ft 247 kts 124°
2026-04-24 21:02 33.96119 -118.36315 6999 ft 245 kts 125°
2026-04-24 21:03 33.95209 -118.34575 6999 ft 245 kts 124°
2026-04-24 21:03 33.94298 -118.32834 7007 ft 246 kts 124°
2026-04-24 21:03 33.93409 -118.31105 7000 ft 245 kts 120°
2026-04-24 21:03 33.92797 -118.29191 6871 ft 248 kts 107°
2026-04-24 21:04 33.92331 -118.27180 6716 ft 252 kts 107°
2026-04-24 21:04 33.91854 -118.25152 6659 ft 251 kts 107°
2026-04-24 21:04 33.91365 -118.23143 6629 ft 248 kts 107°
2026-04-24 21:04 33.90866 -118.21142 6545 ft 249 kts 108°
2026-04-24 21:05 33.90385 -118.19174 6369 ft 247 kts 103°
2026-04-24 21:05 33.90324 -118.17085 5974 ft 248 kts 84°
2026-04-24 21:05 33.90552 -118.15080 5681 ft 242 kts 82°
2026-04-24 21:05 33.90791 -118.13095 5367 ft 237 kts 82°
2026-04-24 21:06 33.91005 -118.11142 5085 ft 231 kts 83°
2026-04-24 21:06 33.91201 -118.09258 5032 ft 226 kts 83°
2026-04-24 21:06 33.91393 -118.07350 5011 ft 233 kts 83°
2026-04-24 21:06 33.91597 -118.05362 4776 ft 245 kts 82°
2026-04-24 21:07 33.91824 -118.03302 4349 ft 250 kts 82°
2026-04-24 21:07 33.92280 -118.01317 3891 ft 247 kts 59°
2026-04-24 21:07 33.93474 -117.99931 3618 ft 235 kts 22°
2026-04-24 21:07 33.95120 -117.99521 3621 ft 247 kts 359°
2026-04-24 21:08 33.96808 -117.99694 3598 ft 238 kts 348°
2026-04-24 21:08 33.98381 -118.00049 3563 ft 221 kts 345°
2026-04-24 21:08 33.99797 -118.00408 3515 ft 212 kts 343°
2026-04-24 21:08 34.01214 -118.00864 3599 ft 218 kts 330°
2026-04-24 21:09 34.02358 -118.02090 3566 ft 225 kts 297°
2026-04-24 21:09 34.02715 -118.03244 3596 ft 214 kts 274°
2026-04-24 21:09 34.02258 -118.05461 3562 ft 208 kts 237°
2026-04-24 21:09 34.01391 -118.06863 3577 ft 212 kts 232°
2026-04-24 21:10 34.00468 -118.08284 3587 ft 218 kts 231°
2026-04-24 21:10 33.99520 -118.09733 3570 ft 222 kts 231°
2026-04-24 21:10 33.98577 -118.11177 3563 ft 214 kts 232°
2026-04-24 21:10 33.97676 -118.12563 3586 ft 208 kts 231°
2026-04-24 21:11 33.96781 -118.13929 3588 ft 208 kts 233°
2026-04-24 21:11 33.96171 -118.15477 3586 ft 209 kts 256°
2026-04-24 21:11 33.95908 -118.17214 3523 ft 213 kts 260°
2026-04-24 21:11 33.95701 -118.18974 3265 ft 208 kts 261°
2026-04-24 21:12 33.95525 -118.20679 2962 ft 199 kts 261°
2026-04-24 21:12 33.95417 -118.21751 2809 ft 190 kts 261°
2026-04-24 21:12 33.95262 -118.23295 2563 ft 184 kts 258°
2026-04-24 21:12 33.95109 -118.24799 2323 ft 180 kts 258°
2026-04-24 21:13 33.94908 -118.26772 2017 ft 177 kts 258°
2026-04-24 21:13 33.94760 -118.28218 1758 ft 167 kts 257°
2026-04-24 21:13 33.94671 -118.29109 1627 ft 158 kts 259°
2026-04-24 21:13 33.94540 -118.30399 1435 ft 155 kts 258°
2026-04-24 21:14 33.94405 -118.31710 1219 ft 155 kts 257°
2026-04-24 21:14 33.94279 -118.32955 1017 ft 147 kts 258°
2026-04-24 21:14 33.94148 -118.34203 798 ft 151 kts 261°
2026-04-24 21:14 33.94024 -118.35438 625 ft 146 kts 259°
2026-04-24 21:15 33.93905 -118.36641 407 ft 142 kts 259°
2026-04-24 21:15 33.93786 -118.37767 227 ft 133 kts 260°
2026-04-24 21:15 33.93682 -118.38853 132 ft 125 kts 258°
2026-04-24 21:15 33.93592 -118.39683 126 ft 71 kts 263°
2026-04-24 21:16 33.93534 -118.40087 125 ft 39 kts 248°
2026-04-24 21:16 33.93458 -118.40187 125 ft 5 kts 178°
2026-04-24 21:16 33.93446 -118.40190 128 ft 4 kts 204°
2026-04-24 21:16 33.93415 -118.40254 127 ft 1 kts 255°
2026-04-24 21:17 33.93411 -118.40272 127 ft 4 kts 257°
2026-04-24 21:17 33.93402 -118.40347 130 ft 10 kts 262°
2026-04-24 21:17 33.93395 -118.40410 127 ft 12 kts 263°
2026-04-24 21:17 33.93379 -118.40483 128 ft 8 kts 233°
2026-04-24 21:18 33.93329 -118.40488 126 ft 10 kts 168°
2026-04-24 21:18 33.93264 -118.40478 126 ft 2 kts 174°